RH
43 39 37 35 36 30 21 20 23 18 14 11 9 10 10 10 13 15 16 15 15 16 17 17 18 19 21 22 22 19 13 10
27 24 22 20 21 19 15 14 13 12 11 10 10 11 14 15 16 17 16 17 17 18 20 22 23 24 24 23 21 19 17 14
42 44 33 21 16 14 14 13 13 13 11 12 15 17 17 16 18 19 21 21 20 21 23 23 24 23 22 21 19 20 19 15
27 26 30 31 26 19 17 16 14 14 16 20 19 23 27 27 27 28 28 26 25 24 23 23 21 21 23 23 21 19 19 18
48 53 43 28 24 24 21 19 20 21 21 25 34 36 35 36 39 37 36 34 31 30 27 26 26 26 24 23 22 21 19 13
40 44 54 54 50 40 26 20 22 29 43 46 53 51 52 56 53 53 44 40 39 38 39 38 35 30 25 20 17 14 11 9
64 56 46 48 66 74 69 59 48 51 58 64 63 58 56 51 52 54 52 48 48 48 45 37 26 19 15 12 9 7 6 5
83 78 67 60 64 56 71 81 84 88 92 87 73 63 62 71 69 60 53 56 57 35 24 15 10 6 5 3 3 2 2 2
48 46 42 52 64 86 90 84 87 96 98 97 79 82 86 83 70 65 57 33 16 10 5 4 3 2 2 2 2 3 2 2
81 68 63 73 71 95 100 100 100 98 93 94 98 96 98 93 60 34 15 6 6 5 4 4 3 3 4 4 4 3 3 2
99 100 69 95 98 100 100 84 91 96 99 99 100 100 88 58 18 7 8 8 8 7 7 6 5 5 4 4 4 4 4 3
98 94 69 85 98 100 100 100 100 100 100 100 88 64 24 6 8 8 9 11 13 12 10 7 6 5 4 4 3 4 4 5
87 87 84 85 92 100 100 100 100 100 100 81 72 19 7 6 7 10 15 16 12 8 5 4 4 3 3 3 3 3 4 6
78 74 76 100 96 98 100 100 100 100 84 24 6 5 8 10 16 18 13 7 4 4 4 4 5 5 6 7 9 6 6 4
98 61 88 92 96 100 100 96 75 33 20 10 13 17 22 20 11 5 4 4 5 8 10 12 12 10 10 14 16 8 6 5
100 94 100 99 100 100 100 96 75 25 19 23 25 22 9 4 4 6 9 12 15 16 15 14 13 12 11 13 12 15 15 13
100 100 100 100 100 100 99 92 57 26 28 26 10 4 5 7 8 8 10 13 16 16 15 11 10 10 14 16 23 21 15 12
100 100 100 98 93 64 34 20 24 29 16 5 5 7 6 6 7 8 11 16 18 17 9 10 12 16 19 25 24 20 17 13
100 100 100 81 40 44 26 29 26 7 5 7 7 6 6 7 8 10 14 16 17 18 12 10 10 12 13 12 11 12 14 13
Wind_Speed
39 42 40 41 41 42 43 45 45 45 44 44 44 43 42 43 43 43 44 46 47 48 49 49 50 51 53 52 52 53 55 53
41 42 41 42 43 45 45 46 47 47 47 47 47 46 45 45 45 46 47 47 48 50 51 52 51 51 53 55 57 56 55 57
44 45 45 44 44 45 47 48 49 50 50 50 49 48 48 48 49 49 50 51 52 54 54 54 55 56 58 59 60 59 60 59
49 47 47 47 47 48 50 51 51 52 52 50 50 50 50 51 51 52 53 56 57 58 58 58 60 61 61 61 61 60 60 61
53 48 49 49 50 52 53 53 53 53 52 52 50 51 51 52 54 55 56 58 58 59 60 60 61 62 61 61 62 62 62 60
51 48 46 48 50 51 53 53 53 52 51 52 53 54 55 54 53 56 56 57 58 59 59 58 58 57 58 60 60 60 60 60
56 50 52 52 51 51 52 52 53 52 52 52 52 51 53 55 56 55 56 56 57 57 56 55 56 56 57 58 59 61 60 60
58 55 52 52 52 51 51 52 52 52 52 54 52 54 56 55 54 54 53 55 55 52 52 52 53 54 55 54 55 55 56 56
60 58 54 50 51 51 50 50 49 51 52 51 55 55 54 53 51 52 50 50 50 49 50 51 51 51 52 53 53 55 55 56
51 50 44 45 46 46 48 49 50 50 51 53 52 52 52 49 47 46 46 46 48 50 51 51 54 53 54 54 54 55 55 54
51 43 42 41 45 45 47 49 53 52 52 54 56 49 43 44 42 44 45 48 50 52 55 56 57 57 58 58 58 58 56 54
49 54 43 41 37 37 39 41 42 45 48 46 40 40 40 39 41 45 48 51 53 58 59 61 62 63 65 65 64 61 57 52
44 38 36 39 40 40 42 47 50 51 43 35 36 38 39 41 45 49 53 56 58 61 65 67 67 67 65 63 62 58 55 51
43 41 41 43 43 44 48 40 41 34 30 33 35 37 41 45 50 54 57 60 63 65 63 59 55 52 50 50 49 47 45 43
38 36 38 39 39 40 44 31 26 28 31 33 37 41 46 49 53 57 58 56 54 50 48 47 47 45 43 40 37 35 35 34
39 34 35 39 39 37 30 26 28 30 32 35 39 44 47 50 50 47 45 46 45 45 45 43 42 41 35 32 29 26 25 24
34 31 33 37 30 25 22 24 28 30 34 39 42 43 40 38 38 38 39 39 39 38 38 37 31 26 23 21 19 18 18 19
30 34 30 29 21 22 26 28 31 34 37 38 34 29 28 30 32 32 31 29 28 30 27 23 19 16 14 14 14 14 14 15
25 29 29 20 22 26 28 32 34 35 31 24 20 19 21 23 27 28 25 24 24 25 23 19 15 12 12 12 13 15 16 16
Wind_Direction
272 271 274 275 275 275 275 276 277 278 280 283 284 286 287 287 288 288 289 290 291 292 292 292 293 293 293 294 292 291 290 288
278 278 277 275 275 274 274 275 276 277 281 283 284 287 288 288 288 288 287 287 288 289 290 290 291 290 290 290 290 289 286 285
277 276 275 275 275 275 274 273 275 277 279 282 284 286 286 287 287 288 289 290 289 289 289 290 290 289 288 287 286 285 286 285
276 276 277 276 275 273 273 273 276 278 281 281 283 285 285 286 287 288 289 289 288 286 286 287 287 288 287 287 287 286 286 287
276 280 279 277 275 275 275 276 278 278 280 281 282 283 284 286 287 287 287 286 287 288 289 288 287 286 286 285 285 285 284 286
283 284 282 279 278 277 276 277 277 278 279 280 283 283 284 286 286 285 287 288 289 290 290 289 288 287 286 285 286 286 286 285
286 282 280 281 282 280 279 279 277 278 278 279 279 280 283 284 284 284 286 288 289 289 289 288 287 287 287 287 287 287 287 287
283 285 285 281 280 280 279 279 279 279 280 277 278 280 281 281 282 285 287 288 288 287 286 286 286 286 286 285 286 286 287 288
281 284 283 278 276 275 275 274 274 271 269 274 277 278 280 280 283 285 286 287 285 284 284 283 282 283 284 286 288 289 291 293
284 287 283 279 277 272 269 270 273 277 277 275 276 276 277 281 284 284 284 284 284 284 283 284 283 285 287 288 290 291 292 293
274 276 287 284 278 274 272 273 273 272 274 277 277 277 281 284 283 284 285 286 287 288 288 287 287 287 288 288 288 288 288 288
281 293 289 285 285 289 287 286 285 286 286 285 284 284 282 282 285 286 289 291 291 291 290 290 289 288 287 286 285 282 279 280
283 283 286 288 287 290 288 289 288 285 280 278 282 284 285 287 289 291 292 292 292 291 290 288 288 286 285 284 282 280 275 275
282 282 289 284 283 283 284 285 284 282 288 287 287 289 291 293 294 294 294 293 293 292 292 293 293 292 290 286 282 283 278 271
280 275 276 282 287 281 292 288 286 287 288 291 294 294 293 295 296 296 297 297 296 296 296 298 298 295 291 290 284 283 273 266
283 280 287 278 279 286 279 279 284 288 290 289 293 295 299 301 302 301 301 301 302 304 303 299 296 294 289 285 284 282 280 282
281 274 265 273 291 279 277 286 288 287 292 296 300 305 308 307 306 309 311 311 312 313 310 307 303 294 289 286 289 290 290 292
271 262 272 286 288 287 287 288 291 294 298 305 310 312 316 327 329 326 325 324 325 332 329 323 315 306 298 294 297 305 307 305
272 272 286 282 282 284 287 290 295 303 309 311 315 336 357 4 5 1 354 350 347 351 360 353 340 325 311 305 306 304 305 309